{"data":{"norad_id":67189,"epoch":"2026-09-20T08:41:38.911488Z","epoch_age_seconds":90168,"freshness":"FRESH","line1":"1 67189U 25303AC  26263.36225592  .00008263  00000+0  30930-3 0  9993","line2":"2 67189  43.0014 291.6606 0001416 277.4390  82.6300 15.27594753 42507","mean_motion":15.27594753,"eccentricity":0.0001416,"inclination_deg":43.0014,"raan_deg":291.6606,"arg_perigee_deg":277.439,"mean_anomaly_deg":82.63,"bstar":0.0003093,"rev_number":4250,"period_min":94.265838316872,"perigee_km":482.03338290986,"apogee_km":483.97645830178,"semimajor_km":6861.1419206058,"source":"CELESTRAK","updated_at":"2026-09-21T09:00:36.134398Z"}}